{"data":{"norad_id":58291,"epoch":"2026-05-25T04:06:19.783584Z","epoch_age_seconds":53456,"freshness":"FRESH","line1":"1 58291U 23174AM  26145.17106231  .00004459  00000+0  16875-3 0  9992","line2":"2 58291  97.3806 221.4535 0006777 267.8240  92.2224 15.27436924141255","mean_motion":15.27436924,"eccentricity":0.0006777,"inclination_deg":97.3806,"raan_deg":221.4535,"arg_perigee_deg":267.824,"mean_anomaly_deg":92.2224,"bstar":0.00016875,"rev_number":14125,"period_min":94.27557874069,"perigee_km":478.82743431581,"apogee_km":488.12766667756,"semimajor_km":6861.6145504967,"source":"CELESTRAK","updated_at":"2026-05-25T13:38:00.645129Z"}}